Location: Unspecified
(0.0000°N, 0.0000°E)
Time: 05:02:18
(UTC+00:00)

STRAND 1 - Visible Passes

Search period start: 17 January 2018 00:00
Search period end: 27 January 2018 00:00
Orbit: 768 x 782 km, 98.5° (Epoch: 15 January)

Date Brightness Start Highest point End Pass type
(mag) Time Alt. Az. Time Alt. Az. Time Alt. Az.
17 Jan ? 19:30:12 10° N 19:35:09 51° WNW 19:40:10 10° SSW visible
18 Jan ? 18:56:17 10° NNE 19:01:21 61° ESE 19:06:26 10° S visible
19 Jan ? 20:02:38 10° NNW 20:06:27 21° WNW 20:10:18 10° SW visible
20 Jan ? 19:27:38 10° N 19:32:39 55° WNW 19:37:41 10° SSW visible
21 Jan ? 18:53:48 10° NNE 18:58:50 56° ESE 19:03:53 10° S visible
22 Jan ? 19:59:57 10° NNW 20:03:55 23° WNW 20:07:56 10° SW visible
23 Jan ? 19:25:04 10° N 19:30:07 59° WNW 19:35:13 10° SSW visible
24 Jan ? 18:51:19 10° NNE 18:56:19 52° ESE 19:01:20 10° S visible
25 Jan ? 19:57:18 10° NNW 20:01:25 24° WNW 20:05:33 10° SW visible
26 Jan ? 19:22:31 10° N 19:27:36 64° WNW 19:32:43 10° SSW visible
